Total_Precipitation_Accumulation
1.30 1.36 1.38 1.33 1.33 1.32 1.28 1.23 1.27 1.35 1.34 1.31 1.44 1.53 1.59 1.68 1.85 2.07 2.22 2.23 2.18 2.20 2.19 2.28 2.48 2.61 2.84 2.78 2.67 2.63 2.55 2.48 2.38 2.11 1.84 1.68 1.74 1.77 1.88 1.99 2.00 1.94 1.79
1.41 1.47 1.41 1.35 1.30 1.28 1.25 1.17 1.15 1.12 1.11 1.21 1.33 1.36 1.39 1.42 1.61 1.89 2.08 2.13 2.13 2.02 1.97 2.09 2.33 2.54 2.75 2.86 2.81 2.71 2.67 2.55 2.47 2.44 2.25 2.02 1.90 1.89 2.04 2.13 2.08 2.03 1.99
1.49 1.40 1.35 1.28 1.19 1.15 1.07 1.03 1.06 1.06 1.14 1.25 1.29 1.31 1.33 1.39 1.43 1.55 1.74 1.87 1.87 1.82 1.83 1.85 1.87 2.08 2.39 2.61 2.65 2.73 2.76 2.73 2.74 2.63 2.48 2.39 2.26 2.03 2.14 2.20 2.17 2.17 2.07
1.64 1.55 1.44 1.35 1.25 1.19 1.09 1.00 0.98 1.01 1.11 1.21 1.24 1.29 1.36 1.40 1.40 1.43 1.44 1.51 1.55 1.63 1.68 1.69 1.73 1.78 2.03 2.25 2.34 2.51 2.75 2.81 2.92 2.89 2.65 2.56 2.53 2.24 2.27 2.39 2.48 2.37 2.27
1.61 1.62 1.50 1.36 1.25 1.18 1.12 1.02 0.98 0.99 1.01 1.10 1.15 1.16 1.22 1.31 1.41 1.46 1.35 1.31 1.39 1.47 1.46 1.41 1.44 1.63 1.85 1.99 1.97 2.25 2.59 2.81 2.89 2.88 2.73 2.73 2.61 2.42 2.24 2.19 2.34 2.55 2.53
1.41 1.44 1.29 1.15 1.02 0.97 0.99 1.00 0.98 0.95 1.00 1.03 0.98 1.00 1.09 1.12 1.39 1.43 1.27 1.18 1.22 1.32 1.40 1.38 1.27 1.30 1.43 1.55 1.62 1.77 2.03 2.27 2.60 2.83 2.77 2.70 2.45 2.31 2.26 2.23 2.24 2.33 2.51
1.03 1.04 0.98 0.92 0.91 0.97 1.02 0.98 0.97 0.98 0.98 1.00 0.96 0.96 0.98 1.12 1.26 1.15 1.20 1.13 1.16 1.21 1.29 1.38 1.29 1.19 1.35 1.38 1.51 1.61 1.57 1.67 2.00 2.39 2.56 2.59 2.58 2.47 2.39 2.23 2.19 2.26 2.28
0.76 0.78 0.76 0.78 0.82 0.90 0.94 0.93 1.00 1.04 0.98 0.98 1.03 1.03 1.01 1.09 1.15 1.06 1.16 1.10 1.08 1.12 1.24 1.34 1.38 1.31 1.37 1.51 1.47 1.47 1.42 1.43 1.72 1.75 1.98 2.39 2.54 2.57 2.46 2.46 2.62 2.59 2.41
0.45 0.49 0.53 0.57 0.61 0.65 0.69 0.78 0.92 1.00 1.02 1.05 1.10 1.10 1.02 1.01 1.13 1.08 1.13 1.08 1.07 1.09 1.12 1.21 1.29 1.23 1.49 1.65 1.52 1.62 1.62 1.53 1.78 1.92 2.00 2.10 2.28 2.46 2.48 2.41 2.45 2.53 2.51
0.30 0.34 0.40 0.44 0.47 0.50 0.58 0.66 0.75 0.80 0.89 1.01 1.03 1.03 1.04 1.02 1.27 1.21 1.20 1.09 1.10 1.17 1.19 1.16 1.36 1.37 1.55 1.58 1.41 1.60 1.65 1.61 1.62 1.69 1.69 1.72 1.67 1.86 2.16 2.19 2.37 2.44 2.35
0.36 0.37 0.39 0.41 0.43 0.49 0.56 0.61 0.68 0.74 0.84 0.90 0.93 0.96 1.03 1.14 1.35 1.36 1.39 1.25 1.23 1.33 1.29 1.18 1.12 1.35 1.28 1.39 1.40 1.34 1.62 1.69 1.62 1.73 1.76 1.64 1.61 1.67 1.79 1.94 2.18 2.36 2.34
0.39 0.41 0.42 0.43 0.47 0.51 0.57 0.63 0.67 0.72 0.75 0.80 0.84 0.89 0.94 1.03 1.13 1.22 1.26 1.27 1.29 1.29 1.31 1.19 1.20 1.36 1.21 1.20 1.17 1.26 1.53 1.65 1.57 1.69 1.74 1.74 1.66 1.59 1.64 1.74 1.85 1.92 1.96
0.40 0.42 0.45 0.46 0.48 0.49 0.54 0.61 0.66 0.68 0.71 0.75 0.80 0.86 0.91 0.96 1.03 1.09 1.07 1.11 1.18 1.18 1.16 1.26 1.30 1.29 1.17 1.06 1.06 1.17 1.26 1.34 1.52 1.59 1.56 1.57 1.57 1.60 1.63 1.63 1.68 1.71 1.73
0.41 0.44 0.44 0.45 0.46 0.49 0.52 0.57 0.62 0.66 0.68 0.73 0.80 0.84 0.87 0.91 0.95 0.96 1.04 1.09 1.06 1.04 1.05 1.06 1.09 1.11 1.10 1.02 1.02 1.09 1.16 1.28 1.39 1.39 1.38 1.39 1.48 1.60 1.72 1.75 1.74 1.73 1.76
0.39 0.41 0.41 0.43 0.47 0.49 0.50 0.53 0.55 0.60 0.72 0.80 0.84 0.87 0.85 0.82 0.83 0.90 1.00 1.10 1.19 1.25 1.31 1.21 1.17 1.15 1.12 1.05 1.03 1.04 1.12 1.22 1.26 1.22 1.25 1.26 1.30 1.44 1.60 1.69 1.77 1.77 1.75
0.45 0.42 0.40 0.41 0.44 0.47 0.49 0.49 0.53 0.56 0.66 0.73 0.74 0.75 0.75 0.79 0.84 0.83 0.87 0.99 1.14 1.32 1.45 1.38 1.42 1.41 1.36 1.28 1.22 1.15 1.11 1.13 1.18 1.26 1.30 1.31 1.30 1.37 1.52 1.62 1.70 1.77 1.74
0.43 0.45 0.44 0.43 0.43 0.47 0.48 0.47 0.53 0.54 0.56 0.62 0.66 0.68 0.75 0.86 0.91 0.94 0.95 1.01 1.07 1.24 1.37 1.38 1.43 1.44 1.39 1.36 1.36 1.27 1.17 1.12 1.17 1.26 1.32 1.38 1.41 1.46 1.57 1.64 1.69 1.76 1.78
0.41 0.44 0.47 0.47 0.48 0.49 0.54 0.58 0.60 0.63 0.64 0.60 0.59 0.61 0.65 0.76 0.84 0.92 1.03 1.12 1.10 1.16 1.23 1.27 1.30 1.24 1.21 1.22 1.21 1.20 1.14 1.11 1.14 1.17 1.22 1.30 1.40 1.50 1.58 1.67 1.71 1.73 1.74
0.40 0.45 0.48 0.54 0.58 0.56 0.58 0.64 0.66 0.60 0.57 0.57 0.58 0.60 0.62 0.67 0.73 0.81 0.95 1.07 1.08 1.06 1.03 1.02 1.02 1.03 1.04 1.08 1.07 1.06 1.07 1.06 1.07 1.12 1.15 1.21 1.31 1.41 1.48 1.54 1.64 1.75 1.73
0.40 0.49 0.52 0.54 0.57 0.57 0.57 0.62 0.63 0.63 0.63 0.65 0.66 0.71 0.73 0.73 0.76 0.82 0.88 0.96 0.97 0.95 0.96 0.98 0.99 1.01 1.07 1.10 1.11 1.11 1.10 1.10 1.10 1.12 1.15 1.21 1.27 1.37 1.44 1.50 1.58 1.69 1.67
0.43 0.46 0.50 0.53 0.56 0.58 0.58 0.62 0.65 0.66 0.69 0.72 0.71 0.76 0.84 0.81 0.83 0.89 0.97 1.02 1.05 1.05 1.03 1.02 1.01 1.01 1.09 1.14 1.17 1.19 1.19 1.19 1.20 1.22 1.23 1.27 1.33 1.40 1.42 1.51 1.61 1.65 1.72
0.46 0.47 0.49 0.55 0.57 0.60 0.63 0.67 0.72 0.72 0.72 0.76 0.76 0.78 0.87 0.83 0.82 0.83 0.89 0.95 1.00 1.05 1.10 1.14 1.13 1.10 1.12 1.20 1.27 1.30 1.33 1.33 1.31 1.31 1.32 1.33 1.39 1.42 1.45 1.55 1.67 1.70 1.74
0.54 0.55 0.57 0.59 0.61 0.64 0.67 0.69 0.75 0.76 0.76 0.79 0.82 0.81 0.82 0.86 0.86 0.84 0.86 0.89 0.93 1.01 1.09 1.16 1.19 1.17 1.12 1.14 1.22 1.32 1.40 1.40 1.39 1.42 1.49 1.52 1.50 1.50 1.54 1.60 1.67 1.74 1.74
0.58 0.63 0.68 0.71 0.72 0.73 0.74 0.78 0.82 0.80 0.81 0.84 0.87 0.88 0.87 0.91 0.91 0.88 0.90 0.95 1.00 1.06 1.12 1.15 1.16 1.14 1.10 1.10 1.14 1.22 1.31 1.35 1.36 1.40 1.47 1.58 1.62 1.60 1.63 1.71 1.75 1.78 1.86
0.61 0.64 0.68 0.73 0.75 0.76 0.79 0.80 0.84 0.83 0.83 0.87 0.89 0.90 0.93 0.96 0.97 0.94 0.92 0.92 0.97 1.04 1.05 1.09 1.13 1.13 1.12 1.11 1.12 1.18 1.36 1.42 1.40 1.40 1.43 1.52 1.58 1.61 1.68 1.78 1.87 1.91 1.97
0.61 0.66 0.69 0.74 0.77 0.80 0.83 0.83 0.86 0.89 0.90 0.90 0.93 0.97 0.99 0.99 0.99 0.98 0.98 0.97 0.98 0.99 0.99 1.03 1.06 1.07 1.09 1.12 1.16 1.27 1.36 1.27 1.24 1.33 1.36 1.45 1.54 1.56 1.61 1.69 1.73 1.81 1.88